• In Hungary
  • List of Countries
  • For 7 days
  • Water Temperature
  • Satellite Maps
  • Weather Map
  • News
  • Weather Widgets
  • user-avatar
    Login

    Hourly Weather Kornilovka

    Today, 19 October, Friday

    Time Temperature Precipitation Wind Pressure Humidity
    00:00 +5°C° 0 mm 3 mps 753 mmHg 65%
    01:00 +5°C° 0 mm 3 mps 753 mmHg 68%
    02:00 +4°C° 0 mm 3 mps 753 mmHg 70%
    03:00 +4°C° 0 mm 3 mps 754 mmHg 71%
    04:00 +4°C° 0 mm 3 mps 754 mmHg 72%
    05:00 +4°C° 0 mm 3 mps 754 mmHg 71%
    06:00 +3°C° 0 mm 3 mps 754 mmHg 70%
    07:00 +3°C° 0 mm 3 mps 754 mmHg 70%
    08:00 +5°C° 0 mm 4 mps 754 mmHg 63%
    09:00 +7°C° 0 mm 5 mps 754 mmHg 56%
    10:00 +9°C° 0 mm 6 mps 754 mmHg 49%
    11:00 +10°C° 0 mm 6 mps 753 mmHg 46%
    12:00 +11°C° 0 mm 6 mps 753 mmHg 42%
    13:00 +12°C° 0 mm 7 mps 753 mmHg 39%
    14:00 +12°C° 0 mm 7 mps 753 mmHg 39%
    15:00 +12°C° 0 mm 7 mps 753 mmHg 39%
    16:00 +14°C° 0 mm 6 mps 752 mmHg 39%
    17:00 +11°C° 0 mm 6 mps 752 mmHg 42%
    18:00 +10°C° 0 mm 6 mps 752 mmHg 44%
    19:00 +9°C° 0 mm 5 mps 752 mmHg 47%
    20:00 +9°C° 0 mm 5 mps 752 mmHg 47%
    21:00 +9°C° 0 mm 5 mps 752 mmHg 47%
    22:00 +8°C° 0 mm 5 mps 752 mmHg 47%
    23:00 +8°C° 0 mm 5 mps 752 mmHg 46%

    Tomorrow, 20 October, Saturday

    Time Temperature Precipitation Wind Pressure Humidity
    00:00 +7°C° 0 mm 5 mps 752 mmHg 46%
    01:00 +7°C° 0 mm 5 mps 752 mmHg 46%
    02:00 +7°C° 0 mm 5 mps 752 mmHg 46%
    03:00 +7°C° 0 mm 5 mps 752 mmHg 46%
    04:00 +6°C° 0 mm 5 mps 752 mmHg 45%
    05:00 +6°C° 0 mm 5 mps 752 mmHg 45%
    06:00 +6°C° 0 mm 5 mps 752 mmHg 44%
    07:00 +6°C° 0 mm 5 mps 752 mmHg 43%
    08:00 +7°C° 0 mm 5 mps 752 mmHg 39%
    09:00 +9°C° 0 mm 6 mps 752 mmHg 36%
    10:00 +10°C° 0 mm 7 mps 752 mmHg 32%
    11:00 +11°C° 0 mm 7 mps 751 mmHg 31%
    12:00 +14°C° 0 mm 7 mps 751 mmHg 30%
    13:00 +15°C° 0 mm 8 mps 751 mmHg 30%
    14:00 +15°C° 0 mm 7 mps 751 mmHg 29%
    15:00 +14°C° 0 mm 7 mps 750 mmHg 28%
    16:00 +14°C° 0 mm 7 mps 750 mmHg 28%
    17:00 +13°C° 0 mm 6 mps 750 mmHg 30%
    18:00 +11°C° 0 mm 6 mps 750 mmHg 32%
    19:00 +10°C° 0 mm 5 mps 750 mmHg 33%
    20:00 +9°C° 0 mm 5 mps 749 mmHg 38%
    21:00 +9°C° 0 mm 5 mps 749 mmHg 42%
    22:00 +9°C° 0 mm 5 mps 749 mmHg 46%
    23:00 +8°C° 0 mm 5 mps 749 mmHg 50%

    Day after tomorrow, 21 October, Sunday

    Time Temperature Precipitation Wind Pressure Humidity
    00:00 +8°C° 0 mm 5 mps 749 mmHg 55%
    01:00 +8°C° 0 mm 4 mps 749 mmHg 60%
    02:00 +7°C° 0 mm 4 mps 749 mmHg 64%
    03:00 +7°C° 0 mm 4 mps 749 mmHg 68%
    04:00 +8°C° 0 mm 3 mps 750 mmHg 73%
    05:00 +7°C° 0 mm 3 mps 750 mmHg 77%
    06:00 +7°C° 0 mm 3 mps 750 mmHg 82%
    07:00 +7°C° 0 mm 2 mps 750 mmHg 87%
    08:00 +8°C° 0 mm 2 mps 751 mmHg 80%
    09:00 +9°C° 0 mm 2 mps 751 mmHg 73%
    10:00 +10°C° 0 mm 3 mps 752 mmHg 66%
    11:00 +12°C° 0 mm 2 mps 752 mmHg 60%
    12:00 +12°C° 0 mm 2 mps 752 mmHg 53%
    13:00 +13°C° 0 mm 2 mps 752 mmHg 46%
    14:00 +13°C° 0 mm 2 mps 752 mmHg 45%
    15:00 +13°C° 0 mm 2 mps 752 mmHg 44%
    16:00 +13°C° 0 mm 2 mps 752 mmHg 44%
    17:00 +12°C° 0 mm 2 mps 753 mmHg 48%
    18:00 +10°C° 0 mm 2 mps 753 mmHg 52%
    19:00 +8°C° 0 mm 2 mps 753 mmHg 57%
    20:00 +8°C° 0 mm 2 mps 753 mmHg 59%
    21:00 +7°C° 0 mm 2 mps 754 mmHg 62%
    22:00 +7°C° 0 mm 2 mps 754 mmHg 65%
    23:00 +6°C° 0 mm 2 mps 754 mmHg 68%

    22 October, Monday

    Time Temperature Precipitation Wind Pressure Humidity
    00:00 +6°C° 0 mm 2 mps 754 mmHg 70%
    01:00 +5°C° 0 mm 2 mps 754 mmHg 73%
    02:00 +5°C° 0 mm 2 mps 754 mmHg 75%
    03:00 +5°C° 0 mm 2 mps 754 mmHg 77%
    04:00 +4°C° 0 mm 2 mps 754 mmHg 79%
    05:00 +4°C° 0 mm 2 mps 755 mmHg 81%
    06:00 +4°C° 0 mm 2 mps 755 mmHg 82%
    07:00 +3°C° 0 mm 2 mps 755 mmHg 83%
    08:00 +5°C° 0 mm 2 mps 755 mmHg 76%
    09:00 +5°C° 0 mm 3 mps 755 mmHg 69%
    10:00 +7°C° 0 mm 3 mps 755 mmHg 61%
    11:00 +8°C° 0 mm 3 mps 755 mmHg 56%
    12:00 +9°C° 0 mm 3 mps 755 mmHg 52%
    13:00 +10°C° 0 mm 2 mps 755 mmHg 47%
    14:00 +9°C° 0 mm 3 mps 755 mmHg 46%
    15:00 +9°C° 0 mm 3 mps 755 mmHg 46%
    16:00 +9°C° 0 mm 3 mps 755 mmHg 45%
    17:00 +8°C° 0 mm 3 mps 755 mmHg 48%
    18:00 +7°C° 0 mm 3 mps 755 mmHg 52%
    19:00 +5°C° 0 mm 3 mps 755 mmHg 55%
    20:00 +5°C° 0 mm 3 mps 755 mmHg 57%
    21:00 +4°C° 0 mm 3 mps 756 mmHg 58%
    22:00 +4°C° 0 mm 3 mps 756 mmHg 60%
    23:00 +3°C° 0 mm 3 mps 756 mmHg 61%

    23 October, Tuesday

    Time Temperature Precipitation Wind Pressure Humidity
    00:00 +3°C° 0 mm 3 mps 756 mmHg 62%
    01:00 +3°C° 0 mm 3 mps 756 mmHg 64%
    02:00 +3°C° 0 mm 3 mps 756 mmHg 65%
    03:00 +2°C° 0 mm 3 mps 756 mmHg 67%
    04:00 +2°C° 0 mm 3 mps 756 mmHg 68%
    05:00 +2°C° 0 mm 3 mps 756 mmHg 69%
    06:00 +2°C° 0 mm 3 mps 756 mmHg 71%
    07:00 +1°C° 0 mm 3 mps 756 mmHg 72%
    08:00 +3°C° 0 mm 3 mps 756 mmHg 66%
    09:00 +4°C° 0 mm 3 mps 756 mmHg 61%
    10:00 +6°C° 0 mm 4 mps 756 mmHg 55%
    11:00 +8°C° 0 mm 4 mps 756 mmHg 51%
    12:00 +10°C° 0 mm 4 mps 755 mmHg 48%
    13:00 +12°C° 0 mm 4 mps 755 mmHg 44%
    14:00 +12°C° 0 mm 4 mps 755 mmHg 45%
    15:00 +12°C° 0 mm 3 mps 755 mmHg 46%
    16:00 +12°C° 0 mm 3 mps 754 mmHg 47%
    17:00 +11°C° 0 mm 3 mps 754 mmHg 51%
    18:00 +10°C° 0 mm 3 mps 754 mmHg 55%
    19:00 +9°C° 0 mm 3 mps 754 mmHg 59%
    20:00 +7°C° 0 mm 4 mps 754 mmHg 60%
    21:00 +7°C° 0 mm 4 mps 754 mmHg 62%
    22:00 +7°C° 0 mm 4 mps 754 mmHg 64%
    23:00 +7°C° 0 mm 4 mps 754 mmHg 65%

    24 October, Wednesday

    Time Temperature Precipitation Wind Pressure Humidity
    00:00 +7°C° 0 mm 4 mps 754 mmHg 66%
    01:00 +6°C° 0 mm 4 mps 754 mmHg 67%
    02:00 +6°C° 0 mm 4 mps 753 mmHg 67%
    03:00 +6°C° 0 mm 5 mps 753 mmHg 67%
    04:00 +6°C° 0 mm 5 mps 753 mmHg 67%
    05:00 +6°C° 0 mm 5 mps 753 mmHg 65%
    06:00 +6°C° 0 mm 5 mps 753 mmHg 63%
    07:00 +5°C° 0 mm 5 mps 753 mmHg 61%
    08:00 +7°C° 0 mm 6 mps 752 mmHg 56%
    09:00 +8°C° 0 mm 7 mps 752 mmHg 50%
    10:00 +9°C° 0 mm 7 mps 752 mmHg 44%
    11:00 +10°C° 0 mm 8 mps 751 mmHg 41%
    12:00 +11°C° 0 mm 8 mps 751 mmHg 38%
    13:00 +12°C° 0 mm 8 mps 750 mmHg 34%
    14:00 +12°C° 0 mm 7 mps 750 mmHg 34%
    15:00 +11°C° 0 mm 7 mps 749 mmHg 33%
    16:00 +11°C° 0 mm 7 mps 749 mmHg 33%
    17:00 +11°C° 0 mm 7 mps 749 mmHg 33%
    18:00 +10°C° 0 mm 7 mps 748 mmHg 34%
    19:00 +10°C° 0 mm 6 mps 748 mmHg 34%
    20:00 +10°C° 0 mm 7 mps 748 mmHg 37%
    21:00 +9°C° 0 mm 7 mps 747 mmHg 39%
    22:00 +9°C° 0 mm 7 mps 747 mmHg 42%
    23:00 +9°C° 0 mm 7 mps 747 mmHg 45%
    Show more